Change the Weather History Date:

Sunday, January 27, 2013

  Actual Average (KABE) Record (KABE)
Temperature  
Mean Temperature 19 °F 28 °F  
Max Temperature 32 °F 36 °F 66 °F (1974)
Min Temperature 6 °F 20 °F -5 °F (1994)
Degree Days  
Heating Degree Days 46 37  
Month to date heating degree days 1007  
Since 1 July heating degree days 3202  
Cooling Degree Days 0 0  
Month to date cooling degree days 0  
Year to date cooling degree days 0  
Moisture  
Dew Point 11 °F    
Average Humidity 69    
Maximum Humidity 93    
Minimum Humidity 44    
Precipitation  
Precipitation 0.00 in 0.09 in 1.35 in (1976)
Month to date precipitation 2.62  
Year to date precipitation 2.62  
Snow  
Snow 0.00 in 0.30 in 8.00 in (1897)
Month to date snowfall 8.4  
Since 1 July snowfall 14.3  
Snow Depth -    
Sea Level Pressure  
Sea Level Pressure 30.48 in    
Wind  
Wind Speed - (North)    
Max Wind Speed -    
Max Gust Speed -    
Visibility 10 miles    
Events      
T = Trace of Precipitation, MM = Missing Value Source: NWS Daily Summary

Daily Weather History Graph

Daily Weather History Graph

Search for Another Location

Airport or City:

Trip Planner

Search our weather history database for the weather conditions in past years. The results will help you decide how hot, cold, wet, or windy it might be!

Date:

Astronomy

Jan. 27, 2013 Rise Set
Actual Time 7:15 AM EST 5:14 PM EST
Civil Twilight 6:46 AM EST 5:43 PM EST
Nautical Twilight 6:13 AM EST 6:16 PM EST
Astronomical Twilight 5:40 AM EST 6:48 PM EST
Moon 6:06 PM EST (1/27) 7:06 AM EST (1/27)
Length of Visible Light 10h 57m
Length of Day
9h 58m
Full, 100% of the Moon is Illuminated
Jan 27
Full
Feb 3
Last Quarter
Feb 10
New
Feb 17
First Quarter
Feb 25
Full

Hourly Weather History & Observations

Time (EST) Temp. Dew Point Humidity Pressure Visibility Wind Dir Wind Speed Gust Speed Precip Events Conditions
12:15 AM 8.6 °F 5.0 °F 85% 30.39 in 10.0 mi North - - N/A   Clear
12:35 AM 8.6 °F 5.0 °F 85% 30.39 in 10.0 mi North - - N/A   Clear
12:55 AM 8.6 °F 5.0 °F 85% 30.39 in 10.0 mi North - - N/A   Clear
1:15 AM 6.8 °F 3.2 °F 85% 30.40 in 10.0 mi North - - N/A   Clear
1:35 AM 8.6 °F 5.0 °F 85% 30.41 in 10.0 mi North - - N/A   Clear
1:55 AM 6.8 °F 5.0 °F 92% 30.42 in 10.0 mi North - - N/A   Clear
2:15 AM 6.8 °F 5.0 °F 92% 30.43 in 10.0 mi North - - N/A   Clear
2:35 AM 6.8 °F 3.2 °F 85% 30.43 in 10.0 mi North - - N/A   Clear
2:55 AM 6.8 °F 3.2 °F 85% 30.43 in 10.0 mi North - - N/A   Clear
3:15 AM 6.8 °F 3.2 °F 85% 30.43 in 10.0 mi North - - N/A   Clear
3:35 AM 6.8 °F 1.4 °F 79% 30.44 in 10.0 mi North - - N/A   Clear
3:55 AM 6.8 °F 1.4 °F 79% 30.44 in 10.0 mi North - - N/A   Clear
4:15 AM 6.8 °F 3.2 °F 85% 30.44 in 10.0 mi North - - N/A   Clear
4:35 AM 8.6 °F 3.2 °F 79% 30.44 in 10.0 mi North - - N/A   Clear
4:55 AM 8.6 °F 5.0 °F 85% 30.44 in 10.0 mi North - - N/A   Clear
5:15 AM 8.6 °F 5.0 °F 85% 30.45 in 10.0 mi North - - N/A   Clear
5:35 AM 12.2 °F 5.0 °F 73% 30.45 in 10.0 mi North - - N/A   Clear
5:55 AM 15.8 °F 6.8 °F 68% 30.45 in 10.0 mi North - - N/A   Clear
6:15 AM 17.6 °F 8.6 °F 68% 30.46 in 10.0 mi North - - N/A   Clear
6:35 AM 15.8 °F 8.6 °F 73% 30.46 in 10.0 mi North - - N/A   Clear
6:55 AM 17.6 °F 8.6 °F 68% 30.46 in 10.0 mi North - - N/A   Clear
7:15 AM 17.6 °F 8.6 °F 68% 30.48 in 10.0 mi North - - N/A   Clear
7:35 AM 17.6 °F 8.6 °F 68% 30.48 in 10.0 mi North - - N/A   Clear
7:55 AM 17.6 °F 8.6 °F 68% 30.49 in 10.0 mi North - - N/A   Clear
8:15 AM 17.6 °F 8.6 °F 68% 30.50 in 10.0 mi North - - N/A   Clear
8:35 AM 19.4 °F 10.4 °F 68% 30.51 in 10.0 mi North - - N/A   Clear
8:55 AM 23.0 °F 12.2 °F 63% 30.52 in 10.0 mi North - - N/A   Clear
9:15 AM 23.0 °F 12.2 °F 63% 30.53 in 10.0 mi North - - N/A   Clear
9:35 AM 24.8 °F 14.0 °F 64% 30.54 in 10.0 mi North - - N/A   Clear
9:55 AM 24.8 °F 14.0 °F 64% 30.55 in 10.0 mi North - - N/A   Clear
10:15 AM 24.8 °F 14.0 °F 64% 30.54 in 10.0 mi North - - N/A   Clear
10:35 AM 24.8 °F 14.0 °F 64% 30.55 in 10.0 mi North - - N/A   Clear
10:55 AM 26.6 °F 14.0 °F 59% 30.54 in 10.0 mi North - - N/A   Clear
11:15 AM 26.6 °F 14.0 °F 59% 30.53 in 10.0 mi North - - N/A   Clear
11:35 AM 28.4 °F 14.0 °F 55% 30.54 in 10.0 mi North - - N/A   Clear
11:55 AM 28.4 °F 14.0 °F 55% 30.52 in 10.0 mi North - - N/A   Clear
12:15 PM 28.4 °F 15.8 °F 59% 30.51 in 10.0 mi North - - N/A   Clear
12:35 PM 28.4 °F 14.0 °F 55% 30.49 in 10.0 mi North - - N/A   Clear
12:55 PM 30.2 °F 15.8 °F 55% 30.49 in 10.0 mi North - - N/A   Clear
1:15 PM 32.0 °F 15.8 °F 51% 30.49 in 10.0 mi North - - N/A   Clear
1:35 PM 32.0 °F 15.8 °F 51% 30.48 in 10.0 mi North - - N/A   Clear
1:55 PM 32.0 °F 14.0 °F 48% 30.47 in 10.0 mi North - - N/A   Clear
2:15 PM 32.0 °F 14.0 °F 48% 30.47 in 10.0 mi North - - N/A   Clear
2:35 PM 32.0 °F 14.0 °F 48% 30.47 in 10.0 mi North - - N/A   Clear
2:55 PM 32.0 °F 14.0 °F 48% 30.47 in 10.0 mi North - - N/A   Clear
3:15 PM 32.0 °F 14.0 °F 48% 30.47 in 10.0 mi North - - N/A   Clear
3:35 PM 32.0 °F 14.0 °F 48% 30.47 in 10.0 mi North - - N/A   Clear
3:55 PM 32.0 °F 12.2 °F 44% 30.47 in 10.0 mi North - - N/A   Clear
4:15 PM 32.0 °F 12.2 °F 44% 30.47 in 10.0 mi North - - N/A   Clear
4:35 PM 32.0 °F 12.2 °F 44% 30.48 in 10.0 mi North - - N/A   Clear
4:55 PM 32.0 °F 14.0 °F 48% 30.49 in 10.0 mi North - - N/A   Clear
5:15 PM 30.2 °F 14.0 °F 51% 30.49 in 10.0 mi North - - N/A   Clear
5:35 PM 28.4 °F 15.8 °F 59% 30.49 in 10.0 mi North - - N/A   Clear
5:55 PM 26.6 °F 14.0 °F 59% 30.49 in 10.0 mi North - - N/A   Clear
6:15 PM 26.6 °F 15.8 °F 64% 30.50 in 10.0 mi North - - N/A   Clear
6:35 PM 26.6 °F 14.0 °F 59% 30.50 in 10.0 mi North - - N/A   Clear
6:55 PM 23.0 °F 15.8 °F 74% 30.50 in 10.0 mi North - - N/A   Clear
7:15 PM 23.0 °F 14.0 °F 68% 30.49 in 10.0 mi North - - N/A   Clear
7:35 PM 23.0 °F 15.8 °F 74% 30.49 in 10.0 mi North - - N/A   Clear
7:55 PM 21.2 °F 15.8 °F 80% 30.49 in 10.0 mi North - - N/A   Clear
8:15 PM 19.4 °F 14.0 °F 80% 30.49 in 10.0 mi North - - N/A   Clear
8:35 PM 19.4 °F 14.0 °F 80% 30.49 in 10.0 mi North - - N/A   Clear
8:55 PM 19.4 °F 14.0 °F 80% 30.50 in 10.0 mi North - - N/A   Clear
9:15 PM 19.4 °F 14.0 °F 80% 30.49 in 9.0 mi North - - N/A   Clear
9:35 PM 19.4 °F 14.0 °F 80% 30.48 in 10.0 mi North - - N/A   Clear
9:55 PM 17.6 °F 14.0 °F 86% 30.48 in 10.0 mi North - - N/A   Clear
10:15 PM 17.6 °F 14.0 °F 86% 30.47 in 10.0 mi North - - N/A   Clear
10:35 PM 17.6 °F 14.0 °F 86% 30.47 in 10.0 mi North - - N/A   Clear
10:55 PM 17.6 °F 14.0 °F 86% 30.48 in 10.0 mi North - - N/A   Clear
11:15 PM 17.6 °F 14.0 °F 86% 30.48 in 9.0 mi North - - N/A   Clear
11:35 PM 15.8 °F 14.0 °F 93% 30.48 in 8.0 mi North - - N/A   Clear
11:55 PM 15.8 °F 14.0 °F 93% 30.49 in 10.0 mi North - - N/A   Clear